Terug naar catalogus

COSMOS 2391 DEB

LostPO
NORAD 27546·DEBRIS·🇷🇺 Russia

Gelanceerd Jul 8, 2002 vanaf Plesetsk Cosmodrome

Loading…

Volgende Passages (komende 24 uur)

TLE

VerouderdSource: Space-Track

Epoch: Sep 29, 2013, 14:00 UTC

1 27546U 02036E   13272.58363000  .00000033  00000-0  16221-3 0  9996
2 27546  82.4827   5.9729 0021433 325.5136  93.0569 12.45079571498977

Volg COSMOS 2391 DEB in realtime met AllMySat

Download on the App Store